Home   Weather   Cluj-Napoca   Past weeks

Flag for Romania Past Weather in Cluj-Napoca, Romania — Yesterday and Last 2 Weeks

Now
82 °F

Passing clouds.


Feels Like: 83 °F
Forecast: 59 / 76 °F
Wind: 16 mph from Northwest

Location: Cluj Airport-Napoca

Current Time: Aug 30, 2016 at 4:22:18 PM

Latest Report: Aug 30, 2016 at 3:30 PM


Visibility: N/A

Pressure: 30.04 "Hg

Humidity: 48%

Dew Point: 61 °F

Location of Cluj-NapocaLocation

Past Weather in Cluj-Napoca — Graph

°F

Cluj-Napoca Temperature Yesterday

Maximum temperature yesterday: 84 °F (at 2:00 PM)
Minimum temperature yesterday: 54 °F (at 6:00 AM)
Average temperature yesterday: 70 °F

High & Low Weather Summary for the Past Weeks

 TemperatureHumidityPressure
High84 °F (Aug 21, 4:00 PM)100% (Aug 16, 8:00 AM)30.30 "Hg (Aug 16, 8:00 AM)
Low48 °F (Aug 17, 5:00 AM)28% (Aug 27, 6:00 PM)29.83 "Hg (Aug 17, 3:30 PM)
Average68 °F72%30.08 "Hg
* Reported Aug 15 3:00 PM — Aug 30 3:00 PM, Cluj-Napoca, Weather by CustomWeather, © 2016

Note: Actual official high and low records may vary slightly from our data, if they occured in-between our weather recording intervals... More about our weather records

Advertising

Cluj-Napoca Weather History for the Previous 24 Hours

Scroll right to see more
 ConditionsComfort  
Time TempWeatherWind HumidityBarometerVisibility
3:00 PM
Tue, Aug 30
82 °FScattered clouds.12 mph45%30.04 "HgN/A
2:30 PM82 °FPassing clouds.12 mph45%30.04 "HgN/A
2:00 PM82 °FPassing clouds.13 mph45%30.04 "HgN/A
1:30 PM82 °FPassing clouds.10 mph45%30.04 "HgN/A
1:00 PM81 °FPassing clouds.9 mph48%30.04 "HgN/A
12:30 PM81 °FPassing clouds.10 mph45%30.04 "HgN/A
12:00 PM81 °FPassing clouds.10 mph45%30.04 "HgN/A
11:30 AM81 °FSunny.2 mph48%30.04 "Hg10 mi
11:00 AM79 °FPassing clouds.6 mph54%30.04 "HgN/A
10:30 AM77 °FPassing clouds.6 mph57%30.04 "HgN/A
10:00 AM73 °FPassing clouds.6 mph61%30.04 "HgN/A
9:30 AM72 °FSunny.7 mph65%30.04 "Hg10 mi
9:00 AM68 °FSunny.7 mph69%30.04 "Hg10 mi
8:30 AM66 °FSunny.7 mph73%30.01 "Hg10 mi
8:00 AM63 °FSunny.8 mph83%30.01 "Hg10 mi
7:30 AM61 °FClear.6 mph83%30.01 "Hg10 mi
7:00 AM61 °FClear.9 mph83%30.01 "Hg10 mi
6:30 AM61 °FClear.5 mph83%30.01 "Hg10 mi
6:00 AM61 °FClear.7 mph88%30.01 "Hg10 mi
5:30 AM61 °FClear.7 mph88%30.01 "Hg10 mi
5:00 AM61 °FClear.7 mph88%30.01 "Hg10 mi
4:00 AM63 °FClear.6 mph83%30.01 "Hg10 mi
3:00 AM63 °FClear.7 mph88%30.01 "Hg10 mi
2:00 AM64 °FClear.9 mph83%30.01 "Hg10 mi
1:00 AM64 °FClear.8 mph83%30.01 "Hg10 mi
12:00 AM66 °FClear.6 mph83%30.01 "Hg10 mi
11:30 PM
Mon, Aug 29
66 °FClear.6 mph83%30.01 "Hg10 mi
11:00 PM66 °FClear.6 mph83%30.01 "Hg10 mi
10:30 PM66 °FClear.2 mph78%30.01 "Hg10 mi
10:00 PM68 °FClear.3 mph73%30.01 "Hg10 mi
9:30 PM72 °FClear.3 mph65%30.01 "Hg10 mi
9:00 PM72 °FPassing clouds.5 mph65%29.98 "HgN/A
8:30 PM72 °FSunny.1 mph65%29.98 "Hg10 mi
8:00 PM75 °FSunny.5 mph61%29.98 "Hg10 mi
7:30 PM79 °FSunny.6 mph51%29.98 "Hg10 mi
7:00 PM82 °FSunny.6 mph45%29.98 "Hg10 mi
6:30 PM82 °FPassing clouds.6 mph45%29.98 "HgN/A
6:00 PM84 °FPassing clouds.7 mph43%29.98 "HgN/A
5:30 PM84 °FPassing clouds.8 mph40%29.98 "HgN/A
5:00 PM84 °FPassing clouds.7 mph40%29.98 "HgN/A
4:30 PM82 °FPassing clouds.3 mph45%29.98 "HgN/A
4:00 PM84 °FPassing clouds.2 mph40%30.01 "HgN/A
Weather by CustomWeather, © 2016

See weather overviewHow to use our weather pages